Погода в Обшаровке

Россия / Самарская область     53°07′08″N   48°51′52″E
темп.,
°C
ветер,
м/с
пор.,
м/с
влажн.,
%
обл.,
%
осадки,
мм/ч
давл.,
гПа
погр.,
м
26 июля, пн
пн2601:00+18св2342100 0.0 102253
04:00+17вюв2242100 0.0 102227
07:00+18з1145100 0.0 102336
10:00+23зсз333386 0.0 10231587
13:00+24зсз4530100 0.0 10232545
16:00+24зсз553096 0.0 10222542
19:00+23зсз343517 0.0 1022874
22:00+17сз115188 0.0 102211
27 июля, вт
вт2701:00+16сз225311 0.0 102211
04:00+14зсз22655 0.0 102214
07:00+18з24556 0.0 1022149
10:00+23зсз454188 0.0 1021730
13:00+26з67337 0.0 10192148
16:00+26сз57345 0.0 10181595
19:00+25сз784043 0.0 10171551
22:00+18сз22634 0.0 101831
28 июля, ср
ср2801:00+16зсз33762 0.0 101833
04:00+14сз33827 0.0 101832
07:00+18сз36650 0.0 1019260
10:00+24с57365 0.0 10181793
13:00+27с57260 0.0 10172431
16:00+27ссз5628100 0.0 10162821
19:00+26сз35355 0.0 10161136
22:00+20ююз225180 0.0 101615
29 июля, чт
чт2901:00+18ююз335713 0.0 101535
04:00+17ююз3362100 0.0 101449
07:00+20ююз41352100 0.0 1013388
10:00+23зюз51050100 0.4 1012807
13:00+18ююв5981100 0.5 1011290
16:00+27зюз9134698 0.6 10081361
19:00+23юз6107596 2.1 1007222
22:00+21юз5118392 2.6 1007235
30 июля, пт
пт3001:00+21зюз513806 0.0 1007251
04:00+19зюз410800 0.0 1007198
07:00+21зсз4106624 0.0 1008322
10:00+28зсз564132 0.0 10081013
13:00+32з553023 0.0 10082356
16:00+32зюз652966 0.0 10072606
19:00+30сз57388 0.0 1007486
22:00+23юз386298 0.1 1008135